Theta_e
291 291 291 290 291 292 291 292 292 292 292 292 292 293 293 293 292 293 293 294 294 293 293 293 293 293 294 296 298 298 299 300 302 306 324 327 328 329 328 327 327 326 324 323
288 290 290 290 291 292 293 294 293 292 292 293 293 292 291 291 292 292 292 292 293 292 292 293 293 293 293 294 295 298 300 300 301 304 322 326 328 328 326 326 325 324 324 325
286 288 290 291 292 293 293 294 293 292 293 291 291 292 292 291 290 289 289 290 290 291 292 292 292 292 292 293 294 296 298 300 300 302 316 324 327 327 324 323 322 322 323 324
286 289 292 292 292 292 293 292 292 293 291 290 292 292 291 291 290 289 289 288 288 288 290 291 291 291 292 292 292 294 296 298 301 302 316 323 325 325 324 322 321 320 320 319
287 289 290 289 291 292 290 291 291 291 290 290 290 292 290 289 290 289 289 288 288 288 289 289 291 291 291 291 291 293 294 297 300 306 314 322 324 323 323 321 319 318 317 317
289 290 288 290 291 291 290 287 288 282 283 287 289 293 291 291 290 288 287 287 287 287 287 288 289 291 290 291 294 293 295 297 299 304 310 321 323 322 320 319 317 316 316 315
288 289 291 291 284 283 281 280 279 281 279 284 290 290 291 289 288 287 286 286 285 285 286 287 287 291 290 290 291 294 300 299 301 306 313 321 321 321 320 318 316 314 313 313
282 285 287 291 288 285 280 281 285 289 282 290 291 286 291 288 287 286 285 285 284 284 285 286 286 291 290 289 289 292 298 304 305 311 315 320 321 321 320 320 319 318 316 313
276 284 289 290 290 286 281 287 288 292 273 281 286 288 289 289 287 286 284 284 283 283 284 285 285 287 289 289 288 289 293 298 304 316 316 319 320 319 318 317 316 316 314 313
282 284 288 290 286 286 288 290 289 286 287 284 285 286 288 286 286 284 283 283 283 283 283 283 284 284 287 288 288 288 290 292 298 307 315 316 317 318 317 317 316 315 314 313
277 282 283 285 278 280 282 287 293 294 289 289 288 286 281 284 285 283 283 282 282 282 282 282 283 283 285 286 287 287 289 290 294 297 304 309 312 315 316 316 316 317 315 313
286 278 279 281 284 281 283 288 294 292 287 288 291 289 281 284 284 284 282 282 282 282 281 281 281 282 284 285 285 286 287 288 289 293 297 299 304 311 314 316 316 316 316 315
285 282 282 282 281 281 283 285 291 292 291 289 290 287 282 283 284 282 282 281 281 281 280 280 280 280 282 282 283 284 285 285 287 289 291 293 296 301 304 308 312 313 315 315
289 287 285 284 281 276 286 285 287 289 288 285 288 286 286 285 283 281 281 280 280 280 280 279 279 279 281 281 280 281 282 283 284 286 287 288 291 294 298 301 305 307 309 311
290 290 277 283 281 277 284 284 285 286 288 289 285 284 287 282 281 281 281 280 279 279 279 278 278 279 279 280 280 280 280 281 282 282 284 285 288 292 295 296 298 301 304 306
286 288 278 279 280 268 276 280 283 285 287 288 286 286 281 279 280 280 280 279 278 278 277 277 277 278 278 279 279 279 279 280 280 281 281 283 285 288 289 292 293 295 297 299
287 288 284 279 276 275 281 279 281 281 281 285 286 285 282 280 279 279 279 278 277 276 276 276 276 276 277 278 278 278 278 278 279 279 280 281 283 284 285 288 290 291 292 294
289 286 287 278 278 281 281 274 279 284 280 283 283 283 278 277 277 276 277 277 276 275 275 274 274 274 275 275 277 277 277 277 277 277 277 279 281 282 283 285 285 287 288 290
289 288 286 281 277 281 284 281 286 283 283 279 284 279 277 275 278 278 274 273 273 272 273 272 272 272 273 273 275 276 275 275 276 276 276 277 279 280 281 282 283 284 285 287
286 288 285 279 282 282 280 280 278 277 286 277 278 276 278 282 279 276 271 268 271 271 271 271 271 271 271 272 273 274 273 273 273 275 276 278 279 279 280 281 282 283 284 284
285 287 286 281 283 282 280 282 286 284 286 275 275 276 280 283 278 270 265 267 266 268 271 272 272 270 270 271 272 272 271 270 272 276 277 277 278 278 279 280 280 282 283 283
286 285 284 281 285 285 281 286 288 284 275 274 273 275 278 275 272 270 269 269 269 268 272 272 271 270 270 270 270 270 269 269 272 275 276 277 278 278 278 279 279 280 281 281
289 288 288 286 285 283 279 282 277 272 279 275 279 277 279 277 276 275 275 276 275 273 273 272 271 271 270 270 269 269 268 270 272 274 274 275 276 277 277 278 278 278 279 279
286 284 287 286 287 285 282 282 277 276 280 282 281 280 280 279 277 276 275 275 275 274 273 272 271 270 270 270 269 268 269 270 271 272 272 273 274 276 276 277 277 278 278 279
287 286 288 287 288 286 284 283 284 280 277 282 280 280 280 277 276 275 275 275 274 274 273 272 271 270 269 269 269 269 269 270 271 271 271 272 272 273 275 276 276 277 279 280
287 289 289 288 287 286 286 286 285 284 282 281 281 280 279 278 276 275 275 274 274 273 272 272 271 270 270 270 270 269 269 269 270 270 270 270 270 271 273 274 276 277 277 279
Wind_Speed
2 1 10 13 17 16 12 14 17 22 25 17 20 20 31 28 18 22 21 20 21 22 22 29 32 34 36 32 31 36 36 38 34 27 25 27 25 26 32 34 38 42 41 44
3 9 17 8 9 14 14 18 22 24 15 9 22 26 32 25 19 12 10 10 13 14 16 18 24 30 32 32 29 32 36 37 33 27 25 28 26 28 29 37 38 42 44 46
8 10 7 12 12 14 17 15 19 20 23 10 14 14 17 4 5 8 10 11 13 13 16 15 16 24 27 25 28 31 34 37 36 32 26 29 25 21 25 30 33 38 45 47
7 5 7 11 10 12 14 7 15 16 11 11 6 12 12 3 3 11 13 13 16 17 16 16 17 18 28 29 29 34 35 32 34 33 26 27 23 15 17 27 29 31 38 40
10 7 7 7 10 3 11 13 13 17 16 13 4 6 5 6 5 15 16 16 16 17 17 19 19 15 26 27 28 33 35 31 29 30 27 29 25 20 22 27 28 31 31 33
17 3 4 6 6 3 10 6 14 3 1 3 7 6 16 2 7 12 13 15 17 18 17 17 18 19 19 20 17 24 28 30 28 30 27 32 29 23 25 25 25 28 29 30
4 4 4 4 6 6 7 6 4 5 4 5 7 12 11 1 5 9 15 16 17 17 17 17 18 13 14 16 18 15 15 26 27 27 27 33 34 29 29 29 26 23 23 25
1 9 3 3 6 6 3 6 3 6 3 17 10 6 4 5 4 11 13 16 17 17 16 16 18 12 10 14 16 15 11 16 21 23 27 30 32 32 31 34 30 24 26 31
2 7 4 11 7 8 5 2 4 5 1 3 4 6 6 11 16 18 17 17 17 17 16 16 16 15 11 12 13 14 10 1 2 19 23 24 28 29 28 29 30 31 32 33
4 7 5 2 4 3 5 2 4 1 5 6 5 5 4 13 15 16 15 16 17 17 17 15 14 16 17 13 14 11 7 8 9 12 16 20 23 27 26 27 27 28 32 32
4 3 7 4 2 6 4 4 5 3 2 3 5 5 5 7 10 13 14 16 16 16 16 14 14 16 20 14 16 14 12 18 20 19 20 17 20 27 29 27 27 25 25 26
5 4 5 11 9 5 5 5 2 2 6 4 4 8 4 5 6 10 13 15 15 14 15 14 14 16 16 17 18 17 17 21 20 24 26 23 21 25 24 22 20 21 24 25
4 3 4 11 5 4 2 4 5 7 3 8 4 6 3 3 8 10 12 13 14 16 16 15 15 15 14 17 18 19 18 22 22 23 25 28 26 26 22 17 16 21 24 25
8 7 8 9 10 2 11 16 15 8 4 3 7 10 12 12 10 12 12 12 12 13 14 14 14 15 13 18 21 21 20 25 22 24 27 30 28 26 23 18 12 10 14 19
3 10 4 8 10 5 17 20 21 11 12 7 5 5 14 6 6 9 9 11 12 14 15 14 14 13 13 17 20 21 23 28 22 28 30 27 26 25 22 20 17 11 6 7
5 4 3 4 7 1 6 11 11 12 11 11 8 11 3 3 3 7 10 10 11 13 14 14 14 14 13 16 17 19 24 24 27 28 27 27 27 26 24 21 18 16 14 8
5 4 2 5 3 6 7 6 4 2 3 4 3 5 2 3 3 3 7 9 9 11 13 14 13 12 15 19 21 22 20 22 26 26 26 29 29 29 25 20 18 18 15 12
5 5 3 4 4 2 7 3 3 5 7 7 5 3 3 4 3 2 1 3 6 8 10 11 11 15 20 21 21 19 22 24 23 26 28 29 29 29 25 23 21 17 15 14
12 6 2 1 3 6 7 2 4 4 6 4 8 1 2 1 2 3 2 1 2 3 4 6 12 15 17 21 22 19 21 21 24 23 25 25 27 26 24 25 22 20 16 14
5 10 5 2 3 4 7 4 3 3 4 3 4 3 4 5 1 3 4 3 5 4 6 9 14 11 16 21 17 17 20 23 24 22 24 26 25 26 26 22 21 18 16 14
3 2 10 4 2 7 6 4 4 4 5 2 4 4 4 3 3 3 1 3 3 4 10 15 17 15 18 20 15 16 16 19 19 20 22 25 25 26 23 20 20 17 16 15
6 6 3 2 3 6 5 4 4 6 2 3 4 4 4 3 2 2 2 2 3 4 8 13 15 16 19 20 21 17 18 20 20 20 23 24 23 23 21 21 20 19 18 18
2 4 3 7 5 3 5 5 4 3 4 4 4 5 6 5 5 5 4 3 0 2 4 7 10 13 19 20 21 19 20 20 19 19 20 19 18 18 18 18 19 20 19 20
4 4 2 3 3 4 5 5 3 5 4 3 4 6 8 5 6 6 4 3 2 1 2 8 14 15 17 19 17 15 17 17 15 15 16 16 17 17 16 15 15 16 18 17
2 4 2 3 6 3 4 5 4 3 3 3 4 6 8 7 6 6 5 5 3 1 2 6 8 9 12 14 15 15 15 15 16 16 16 16 15 15 15 14 12 12 11 10
4 4 3 5 6 2 4 2 3 4 4 7 7 6 6 7 8 6 6 6 5 4 1 5 8 10 12 14 16 15 15 15 14 15 16 16 14 14 14 14 14 7 8 8
Wind_Direction
2 255 239 236 216 237 264 269 267 281 285 293 286 283 282 291 294 277 272 268 269 267 267 262 262 258 257 251 244 243 247 257 266 274 239 217 211 203 199 194 196 195 188 183
342 232 252 249 239 248 259 268 283 287 285 309 295 285 284 294 280 310 332 346 334 313 291 272 262 257 254 251 249 254 246 249 262 265 242 216 208 193 199 196 197 192 192 191
201 248 312 276 275 282 271 277 282 277 301 278 281 283 300 311 58 359 2 340 330 326 317 311 315 285 253 246 246 249 254 249 250 257 247 218 202 184 186 185 186 190 193 194
241 278 262 287 268 275 281 243 275 287 313 296 53 289 310 283 326 353 344 338 330 325 324 318 308 309 278 258 251 251 254 255 247 251 235 205 204 183 186 178 181 187 191 189
254 274 286 276 259 243 248 304 281 270 267 294 299 227 274 24 336 344 328 324 323 321 325 318 310 302 307 271 248 249 255 250 251 245 234 203 197 181 176 172 173 183 186 187
256 285 223 230 284 261 307 321 294 352 156 237 248 202 299 313 325 315 317 320 319 322 322 315 316 306 307 318 296 254 249 248 243 240 235 202 193 174 156 157 163 167 180 184
307 240 260 202 356 346 40 27 325 346 355 238 300 300 264 13 335 326 319 322 327 326 324 320 326 312 317 323 319 300 257 245 232 226 224 198 184 177 164 156 158 155 162 176
228 316 219 162 162 223 234 157 187 291 281 295 288 244 262 181 11 342 333 328 330 329 326 322 328 315 323 326 315 305 277 256 231 212 216 201 189 180 178 173 175 185 190 191
148 267 250 286 289 137 272 228 222 278 75 359 267 290 123 344 348 343 339 338 333 331 330 326 337 335 332 337 324 323 298 234 163 190 212 191 180 176 177 179 180 176 187 191
268 303 250 305 9 294 183 293 318 318 312 300 279 283 260 334 328 333 333 337 334 334 335 336 342 339 333 340 335 355 354 64 85 124 177 192 180 168 168 167 167 173 182 191
152 161 278 28 218 203 342 297 227 258 209 269 307 269 215 280 323 325 335 340 336 336 338 340 345 343 336 349 358 7 24 48 67 85 117 137 148 160 164 164 174 191 190 196
208 187 273 243 270 202 197 234 252 256 289 236 271 279 227 271 314 338 340 340 341 341 340 347 353 347 351 358 8 12 29 47 49 76 88 96 105 120 142 157 175 186 195 200
187 234 320 322 350 10 127 253 246 275 297 256 264 265 217 339 355 349 344 342 342 347 349 351 360 352 355 358 7 12 26 45 48 62 70 73 77 86 90 116 156 183 194 197
189 198 192 244 245 169 297 287 279 274 247 254 236 292 309 340 345 346 343 344 344 349 352 355 2 353 354 359 13 14 24 43 45 57 59 58 59 67 68 71 95 151 184 196
234 261 198 251 270 260 275 276 282 267 240 235 268 264 309 311 326 331 331 346 355 355 358 356 356 353 357 5 16 20 33 42 44 54 54 53 62 64 65 62 60 68 122 185
190 246 151 271 272 24 260 253 253 253 252 245 272 288 208 263 317 351 345 354 0 355 353 353 351 352 360 6 14 19 30 37 48 53 53 55 59 62 59 57 54 57 57 65
195 196 159 258 244 324 323 236 199 247 236 178 230 233 183 292 352 347 345 352 355 354 353 353 348 349 353 1 11 19 24 42 50 52 50 52 56 56 54 55 53 48 48 55
188 170 188 262 4 348 242 240 173 215 244 225 287 262 214 228 199 294 29 353 351 352 354 349 348 349 358 1 15 20 30 38 44 48 47 47 53 55 54 55 51 47 41 45
209 188 225 186 206 294 318 292 184 151 291 216 228 253 290 293 80 303 317 21 306 320 331 335 343 349 359 9 10 24 35 37 42 38 43 48 54 55 54 51 47 44 42 39
225 206 164 136 188 221 238 279 172 114 308 236 160 195 174 165 60 262 290 317 340 346 356 349 359 8 17 14 16 33 31 30 27 28 40 47 50 51 50 49 47 44 44 44
98 150 204 215 276 288 245 215 155 67 249 194 174 190 195 204 199 203 284 304 281 306 348 7 18 19 13 17 26 38 34 28 30 42 45 47 47 47 46 50 48 49 49 48
176 163 186 122 213 280 166 108 165 216 272 189 191 199 203 171 172 177 213 260 306 331 353 14 16 19 20 22 27 27 26 19 30 38 42 42 41 42 42 45 45 45 50 50
244 207 183 189 211 233 224 211 247 180 187 206 183 191 175 162 192 182 183 168 261 341 354 16 19 24 25 23 24 25 15 17 24 33 38 40 45 43 41 40 39 40 40 45
234 167 235 67 286 253 234 248 222 185 229 204 192 164 174 178 174 181 162 186 198 209 353 11 17 17 15 21 23 24 16 20 27 34 33 31 31 32 35 41 40 39 32 31
202 138 229 260 271 252 250 231 258 197 212 203 161 170 183 162 187 176 182 189 199 202 14 12 12 11 13 15 21 18 15 18 26 28 27 25 25 23 21 28 26 27 32 18
193 190 209 238 244 199 265 268 180 214 209 201 171 172 182 179 181 179 189 187 190 204 228 2 2 2 2 10 18 14 11 10 14 23 20 15 11 12 16 14 13 36 19 15